[[{"header":{"parameterUnit":"m.s-1","parameterCategory":1,"la1":30.2991,"la2":30.254,"lo1":-89.0895,"lo2":-89.0444,"dy":0.0017,"dx":0.0017,"nx":28,"ny":28,"refTime":"2025-05-28T09:00:00:Z","depth":0,"parameterNumber":2,"parameterNumberName":"U-component_of_WINDS"},"data":[0,0,0,0,0,0,0,0,0,0,0,0,0,0,0,0,0,0,0,0,0,0,0,0,0,0,0,0,0,0,0,0,0,0,0,0,0,0,0,0,0,0,0,0,0,0,0,0,0,0,0,0,0,0,0,0,0,0,1.4604,1.4605,0,1.4699,1.47,1.4701,1.4755,1.4755,1.4755,1.4755,1.4855,1.4857,1.486,0,0,0,0,0,0,0,0,0,0,0,0,0,1.4472,1.4474,1.4604,1.4605,1.4606,1.4698,1.47,1.4701,1.4755,1.4755,1.4755,1.4755,1.4854,1.4857,1.486,0,0,0,0,0,0,0,0,0,0,0,0,0,1.4544,1.4475,1.4604,1.4644,1.4648,1.4698,1.47,1.4701,1.4755,1.4755,1.4755,1.4755,1.4853,1.4857,1.486,1.4878,0,0,1.4872,1.4873,0,0,0,0,0,0,0,0,1.454,1.4549,1.4637,1.4641,1.4646,1.4715,1.469,1.4761,1.4754,1.4714,1.4755,1.4755,1.4808,1.4816,1.4833,1.4883,1.4887,1.4872,1.4874,1.4876,1.4877,0,0,0,0,0,0,0,1.4535,1.4545,1.4641,1.4638,1.4644,1.4658,1.4669,1.4703,1.4759,1.4718,1.4722,1.4732,1.4811,1.4829,1.4836,1.4888,1.4872,1.4875,1.4877,1.4879,1.4958,1.4958,0,0,0,0,0,0,1.4523,1.4541,1.4638,1.4644,1.4593,1.466,1.4672,1.4693,1.4758,1.4769,1.4732,1.4734,1.4823,1.4831,1.4839,1.4865,1.4876,1.4879,1.4881,1.4958,1.4958,1.4958,0,0,0,0,0,0,1.452,1.4531,1.4635,1.4594,1.4608,1.4662,1.4685,1.4694,1.4713,1.4769,1.4779,1.474,1.4823,1.4834,1.4868,1.4869,1.4881,1.4884,1.4958,1.4958,1.4958,1.4916,0,0,0,0,0,0,1.4516,1.453,1.4536,1.4593,1.461,1.4661,1.4685,1.4696,1.4719,1.4723,1.478,1.4789,1.4824,1.4862,1.4872,1.4874,1.4887,1.4959,1.4958,1.4958,1.4917,1.4914,1.4911,0,0,0,0,0,1.4511,1.4521,1.4537,1.4548,1.4619,1.4661,1.467,1.4709,1.4719,1.4726,1.4762,1.4788,1.4867,1.4865,1.4876,1.488,1.4959,1.4958,1.4958,1.4918,1.4915,1.4911,0,0,0,0,0,0,1.4464,1.4529,1.4547,1.4576,1.4612,1.4669,1.468,1.4704,1.4739,1.4741,1.4789,1.4802,1.4831,1.4859,1.4856,1.4901,1.4916,1.4918,1.4882,1.4879,1.4876,1.4869,1.489,0,0,0,0,0,1.4457,1.4484,1.454,1.456,1.4577,1.4625,1.4645,1.4672,1.4712,1.4728,1.4767,1.4805,1.4839,1.486,1.4894,1.4921,1.4935,1.493,1.4927,1.4924,1.4925,1.4942,1.4941,1.4957,1.4957,1.4957,0,0,1.4443,1.4482,1.4496,1.4552,1.4583,1.4611,1.4638,1.4667,1.4688,1.4733,1.4767,1.4796,1.4843,1.4873,1.4888,1.4897,1.4924,1.4924,1.4921,1.4924,1.4942,1.494,1.4939,1.4957,1.4957,1.4957,0,0,1.4431,1.4463,1.4483,1.4514,1.4561,1.4593,1.4597,1.4651,1.4672,1.4707,1.4741,1.4768,1.4825,1.4857,1.488,1.488,1.4905,1.489,1.4875,1.4891,1.489,1.4889,1.489,1.4889,1.4891,1.4891,1.4891,0,1.4408,1.4451,1.4491,1.4518,1.4541,1.4582,1.4603,1.4631,1.4687,1.4703,1.4712,1.4784,1.4818,1.4857,1.4857,1.4874,1.4882,1.4884,1.4886,1.4886,1.4886,1.4887,1.4887,1.4889,1.4889,1.489,1.489,0,1.442,1.4449,1.446,1.4512,1.4537,1.4561,1.4606,1.4626,1.4651,1.4682,1.4717,1.4759,1.4803,1.4814,1.4839,1.4856,1.4861,1.4877,1.4893,1.4882,1.4884,1.4884,1.4886,1.4887,1.4888,1.4888,0,0,1.4382,1.4456,1.4459,1.4483,1.4538,1.4561,1.4587,1.4629,1.4646,1.4683,1.4707,1.4754,1.477,1.4796,1.4825,1.4839,1.4837,1.4854,1.4856,1.485,1.486,1.4847,1.4847,1.4854,1.4854,1.4854,1.4856,0,1.4379,1.4426,1.4463,1.4497,1.4525,1.4564,1.4587,1.4623,1.4653,1.4682,1.4715,1.4748,1.4766,1.4782,1.4798,1.4834,1.484,1.4834,1.4877,1.4878,1.4865,1.4848,1.4835,1.4835,1.4857,1.4858,1.4858,0,1.4382,1.4416,1.4453,1.4504,1.4518,1.4537,1.4579,1.4605,1.4648,1.4668,1.4698,1.4727,1.4757,1.477,1.4812,1.4808,1.4827,1.4848,1.4849,1.4855,1.4867,1.4855,1.4836,1.4836,1.4859,1.4859,1.4859,0,1.4351,1.4407,1.4436,1.4456,1.4516,1.4529,1.4555,1.4598,1.4621,1.4657,1.4673,1.4712,1.4734,1.4765,1.4804,1.481,1.4843,1.4859,1.4862,1.4861,1.4868,1.4867,1.4853,1.4879,1.4879,1.4879,1.4879,0,1.4344,1.4365,1.4423,1.4441,1.4466,1.4509,1.4532,1.4562,1.4599,1.4624,1.466,1.4683,1.4734,1.4764,1.4795,1.4826,1.4835,1.4854,1.4862,1.4851,1.4849,1.4865,1.4866,1.4879,1.4879,1.4879,1.4879,0,1.4314,1.4354,1.4388,1.4443,1.4457,1.4473,1.452,1.454,1.4571,1.4602,1.4612,1.4662,1.4699,1.4741,1.4792,1.4813,1.4842,1.4853,1.4827,1.4832,1.4833,1.4833,1.483,1.4832,1.4855,1.4855,1.4855,0,1.4308,1.4324,1.438,1.4399,1.4424,1.4454,1.4477,1.452,1.4543,1.4592,1.4606,1.4645,1.4678,1.4735,1.4776,1.4815,1.4829,1.4825,1.4835,1.4823,1.483,1.4828,1.4831,1.4823,1.4822,1.4822,1.4821,0,1.4292,1.431,1.4342,1.438,1.4406,1.4439,1.4473,1.4487,1.4537,1.4561,1.4598,1.4624,1.4675,1.4714,1.4758,1.4786,1.4812,1.4818,1.4821,1.481,1.4794,1.4803,1.482,1.4818,1.4818,1.4819,1.4819,1.4819,1.4274,1.4291,1.4332,1.4367,1.4396,1.4427,1.4448,1.4482,1.4514,1.4558,1.4582,1.4618,1.4661,1.4723,1.475,1.478,1.4789,1.4793,1.4795,1.4795,1.4792,1.4789,1.4788,1.4789,1.4789,1.4789,1.4789,0,1.426,1.4289,1.4319,1.4366,1.4393,1.4414,1.4453,1.4474,1.4506,1.4543,1.4574,1.4617,1.4655,1.4699,1.474,1.4755,1.4769,1.4765,1.4765,1.4771,1.4781,1.4775,1.4754,1.4754,1.4754,1.4754,1.4754,1.4754,1.4256,1.4286,1.4309,1.4355,1.4384,1.4419,1.444,1.4469,1.4499,1.4545,1.4576,1.4604,1.4644,1.4688,1.4723,1.4735,1.4749,1.4742,1.4757,1.4767,1.477,1.4773,1.4767,1.4744,1.4744,1.4744,1.4744,1.4744]},{"header":{"parameterUnit":"m.s-1","parameterCategory":1,"la1":30.2991,"la2":30.254,"lo1":-89.0895,"lo2":-89.0444,"dy":0.0017,"dx":0.0017,"nx":28,"ny":28,"refTime":"2025-05-28T09:00:00:Z","depth":0,"parameterNumber":3,"parameterNumberName":"V-component_of_WINDS"},"data":[0,0,0,0,0,0,0,0,0,0,0,0,0,0,0,0,0,0,0,0,0,0,0,0,0,0,0,0,0,0,0,0,0,0,0,0,0,0,0,0,0,0,0,0,0,0,0,0,0,0,0,0,0,0,0,0,0,0,-0.1847,-0.1847,0,-0.1873,-0.1874,-0.1874,-0.1931,-0.1932,-0.1933,-0.1934,-0.1958,-0.1957,-0.1957,0,0,0,0,0,0,0,0,0,0,0,0,0,-0.1842,-0.1842,-0.1847,-0.1847,-0.1847,-0.1873,-0.1874,-0.1874,-0.1931,-0.1932,-0.1934,-0.1935,-0.1958,-0.1957,-0.1957,0,0,0,0,0,0,0,0,0,0,0,0,0,-0.1854,-0.1842,-0.1846,-0.1879,-0.1882,-0.1873,-0.1874,-0.1874,-0.1931,-0.1932,-0.1934,-0.1936,-0.1958,-0.1957,-0.1957,-0.1917,0,0,-0.1954,-0.1954,0,0,0,0,0,0,0,0,-0.1853,-0.1854,-0.1874,-0.1877,-0.188,-0.1901,-0.1881,-0.1888,-0.193,-0.1912,-0.1934,-0.1937,-0.1937,-0.1938,-0.1939,-0.1918,-0.1919,-0.1954,-0.1954,-0.1954,-0.1953,0,0,0,0,0,0,0,-0.1852,-0.1853,-0.1857,-0.1874,-0.1878,-0.1891,-0.1895,-0.1882,-0.1914,-0.1914,-0.1918,-0.1921,-0.1939,-0.194,-0.194,-0.192,-0.1954,-0.1954,-0.1953,-0.1953,-0.1869,-0.1867,0,0,0,0,0,0,-0.1847,-0.1852,-0.1856,-0.1858,-0.1871,-0.189,-0.1894,-0.1892,-0.1915,-0.192,-0.1919,-0.1923,-0.194,-0.1941,-0.1941,-0.1898,-0.1954,-0.1953,-0.1953,-0.1871,-0.1869,-0.1867,0,0,0,0,0,0,-0.1847,-0.1847,-0.1855,-0.1856,-0.1858,-0.1888,-0.1886,-0.1892,-0.1893,-0.1919,-0.1924,-0.1914,-0.1941,-0.1942,-0.1923,-0.1899,-0.1953,-0.1952,-0.1873,-0.187,-0.1868,-0.1809,0,0,0,0,0,0,-0.1846,-0.1846,-0.1832,-0.1855,-0.1858,-0.1837,-0.1884,-0.1891,-0.1892,-0.1897,-0.1915,-0.192,-0.1943,-0.1924,-0.1923,-0.1899,-0.1951,-0.1875,-0.1872,-0.1869,-0.1813,-0.1805,-0.1797,0,0,0,0,0,-0.1846,-0.1813,-0.1831,-0.1831,-0.1841,-0.1836,-0.1837,-0.1866,-0.189,-0.1875,-0.1892,-0.1919,-0.1902,-0.1922,-0.192,-0.1896,-0.1877,-0.1873,-0.1869,-0.1817,-0.1806,-0.1798,0,0,0,0,0,0,-0.1785,-0.1817,-0.1837,-0.1811,-0.1821,-0.1846,-0.1829,-0.1853,-0.1855,-0.186,-0.1894,-0.1897,-0.1874,-0.1883,-0.1905,-0.186,-0.1894,-0.1889,-0.1855,-0.1845,-0.1837,-0.1835,-0.1951,0,0,0,0,0,-0.1769,-0.1763,-0.1791,-0.1766,-0.1769,-0.1798,-0.1797,-0.1818,-0.1828,-0.1832,-0.1848,-0.1856,-0.1853,-0.1849,-0.1847,-0.1815,-0.182,-0.1798,-0.179,-0.1783,-0.1779,-0.1764,-0.1754,-0.1853,-0.1853,-0.1854,0,0,-0.1735,-0.1752,-0.1746,-0.1754,-0.1764,-0.1756,-0.1801,-0.1791,-0.1786,-0.183,-0.1814,-0.1826,-0.1837,-0.1812,-0.1801,-0.1819,-0.1753,-0.1778,-0.1773,-0.1772,-0.1758,-0.1749,-0.1741,-0.1851,-0.1851,-0.1852,0,0,-0.1669,-0.1681,-0.1662,-0.1672,-0.1687,-0.1706,-0.1701,-0.1723,-0.1733,-0.1718,-0.1752,-0.1745,-0.1738,-0.1745,-0.1748,-0.1687,-0.1712,-0.1685,-0.1643,-0.1628,-0.162,-0.1613,-0.1592,-0.1584,-0.1681,-0.1681,-0.1681,0,-0.1624,-0.1616,-0.1649,-0.1637,-0.164,-0.1682,-0.1663,-0.167,-0.1682,-0.1683,-0.1703,-0.1696,-0.1707,-0.1684,-0.167,-0.167,-0.1666,-0.1683,-0.1619,-0.1612,-0.1607,-0.1587,-0.1578,-0.1677,-0.1678,-0.1678,-0.1678,0,-0.1561,-0.1554,-0.1537,-0.1551,-0.1551,-0.1536,-0.1565,-0.1562,-0.1583,-0.16,-0.1585,-0.1599,-0.1601,-0.1598,-0.1617,-0.1578,-0.1589,-0.1613,-0.1648,-0.1593,-0.1575,-0.1568,-0.1673,-0.1674,-0.1675,-0.1676,0,0,-0.1457,-0.149,-0.1483,-0.149,-0.151,-0.1506,-0.1492,-0.1496,-0.1493,-0.15,-0.149,-0.1484,-0.1507,-0.151,-0.1531,-0.1518,-0.1469,-0.1544,-0.1545,-0.153,-0.1428,-0.1409,-0.14,-0.1486,-0.1485,-0.1484,-0.1427,0,-0.1396,-0.1376,-0.1406,-0.1379,-0.1374,-0.1414,-0.1402,-0.1413,-0.1429,-0.1426,-0.1443,-0.1439,-0.147,-0.1472,-0.1461,-0.1478,-0.1449,-0.1482,-0.1476,-0.1476,-0.1472,-0.139,-0.137,-0.1315,-0.142,-0.1419,-0.1418,0,-0.1323,-0.1329,-0.1302,-0.1325,-0.1324,-0.1313,-0.132,-0.1317,-0.133,-0.1342,-0.1346,-0.1372,-0.136,-0.1394,-0.1378,-0.14,-0.1399,-0.1407,-0.1406,-0.1406,-0.1443,-0.1388,-0.1299,-0.129,-0.1407,-0.1408,-0.1408,0,-0.125,-0.1252,-0.1236,-0.1241,-0.1267,-0.1259,-0.1269,-0.1284,-0.1285,-0.1291,-0.1292,-0.1295,-0.1296,-0.1298,-0.1324,-0.1346,-0.1305,-0.134,-0.1314,-0.1314,-0.1303,-0.1304,-0.1212,-0.1303,-0.1303,-0.1303,-0.1303,0,-0.118,-0.1161,-0.1204,-0.1194,-0.1176,-0.121,-0.119,-0.1204,-0.1217,-0.1211,-0.1245,-0.1238,-0.1273,-0.1269,-0.1289,-0.1273,-0.1273,-0.1283,-0.1288,-0.128,-0.1278,-0.128,-0.1284,-0.1301,-0.1301,-0.1302,-0.1302,0,-0.1095,-0.1123,-0.1109,-0.1136,-0.1143,-0.1127,-0.115,-0.1142,-0.1161,-0.1152,-0.1152,-0.1181,-0.1179,-0.1205,-0.1207,-0.1221,-0.1195,-0.1207,-0.1191,-0.1195,-0.1168,-0.117,-0.1074,-0.1063,-0.116,-0.1159,-0.1158,0,-0.1048,-0.1036,-0.1062,-0.1061,-0.107,-0.1068,-0.107,-0.1103,-0.1103,-0.1118,-0.1107,-0.1109,-0.1111,-0.1105,-0.1126,-0.1128,-0.1141,-0.1107,-0.1141,-0.1133,-0.114,-0.1141,-0.114,-0.1099,-0.1098,-0.1097,-0.1096,0,-0.0963,-0.0977,-0.0979,-0.0986,-0.0988,-0.0994,-0.1003,-0.1,-0.1036,-0.1034,-0.1033,-0.1035,-0.1039,-0.1039,-0.1046,-0.1056,-0.1082,-0.1086,-0.108,-0.1071,-0.1062,-0.1067,-0.1172,-0.1088,-0.1088,-0.1089,-0.109,-0.109,-0.0896,-0.0887,-0.0905,-0.0906,-0.0917,-0.0924,-0.0918,-0.0937,-0.0938,-0.0944,-0.0963,-0.0959,-0.0973,-0.0985,-0.0992,-0.0989,-0.1005,-0.0997,-0.0995,-0.0992,-0.0987,-0.1063,-0.099,-0.0991,-0.0991,-0.0991,-0.0991,0,-0.0812,-0.0826,-0.0827,-0.0839,-0.084,-0.0866,-0.0878,-0.0876,-0.0873,-0.0884,-0.0887,-0.0886,-0.0887,-0.0908,-0.0912,-0.0905,-0.0917,-0.0905,-0.0905,-0.0907,-0.0972,-0.0977,-0.0895,-0.0895,-0.0895,-0.0895,-0.0895,-0.0895,-0.0769,-0.0756,-0.0773,-0.0765,-0.0779,-0.0776,-0.0781,-0.0788,-0.0798,-0.0796,-0.0797,-0.0812,-0.0827,-0.0832,-0.0834,-0.084,-0.084,-0.0824,-0.0834,-0.0893,-0.0903,-0.0912,-0.0917,-0.0823,-0.0823,-0.0769,-0.0769,-0.0769]}]]